Location: Olda
(45.8833°N, 9.5500°E)
Time: 12:33:37
(UTC+00:00)

Cosmos 2219 Rocket - Pass Details

Date: 03 March 2021
Orbit: 827 x 848 km, 71.0° (Epoch: 11 April)

Event Time Altitude Azimuth Distance (km) Brightness Sun altitude
Rises 21:09:07 0° 250° (WSW) 3,363 5.6 -39.8°
Reaches altitude 10° 21:12:10 10° 267° (W) 2,436 5.0 -40.2°
Maximum altitude 21:16:17 21° 315° (NW) 1,806 4.4 -40.7°
Drops below altitude 10° 21:20:27 10° 3° (N) 2,454 4.9 -41.2°
Sets 21:23:33 0° 19° (NNE) 3,396 5.6 -41.6°
